Hourly Data Report for April 18, 2017

OTTAWA INTL A
ONTARIO

45°19'00.000" N
75°40'00.000" W
114.90 m
6106001
71628
YOW

Download Data

Hourly Data (April 2017)
Hourly Data Report for April 18, 2017
TIME
LST
Temp Definition
°C
Dew Point Definition
°C
Rel Hum Definition
%
Precip. Amount Definition
mm

Wind Dir Definition
10's deg

Wind Spd Definition
km/h
Visibility Definition
km
Stn Press Definition
kPa
Hmdx Definition


Wind Chill Definition


Weather Definition


00:00 -0.7 -4.6 75   29 10 24.1 101.30   -4 LegendNANA
01:00 -1.9 -4.4 83   27 8 24.1 101.33   -5 Clear
02:00 -1.7 -4.1 84   28 5 24.1 101.34   -4 LegendNANA
03:00 -2.4 -4.4 86   30 4 24.1 101.37   -4 LegendNANA
04:00 -3.0 -4.3 91   26 5 24.1 101.46   -5 Clear
05:00 -2.9 -4.5 89   29 3 24.1 101.53   -4 LegendNANA
06:00 -2.2 -3.8 89   27 4 24.1 101.61   -4 LegendNANA
07:00 0.8 -3.7 72   36 9 24.1 101.70     Clear
08:00 3.1 -3.7 61   3 5 24.1 101.77     LegendNANA
09:00 4.4 -4.9 51   24 4 24.1 101.82     LegendNANA
10:00 5.5 -5.2 46   23 6 24.1 101.84     Mainly Clear
11:00 7.5 -5.9 38   29 5 24.1 101.85     LegendNANA
12:00 7.7 -6.4 36   5 3 24.1 101.79     LegendNANA
13:00 9.0 -6.4 33   9 6 24.1 101.73     Mainly Clear
14:00 9.6 -7.1 30   11 15 24.1 101.69     LegendNANA
15:00 10.5 -4.7 34   8 15 24.1 101.63     LegendNANA
16:00 10.0 -5.9 32   13 16 24.1 101.63     Mainly Clear
17:00 10.0 -6.8 30   9 10 24.1 101.64     LegendNANA
18:00 9.3 -3.9 39   9 15 24.1 101.54     LegendNANA
19:00 6.7 -3.8 47   10 15 24.1 101.54     Mainly Clear
20:00 5.0 -4.3 51   10 14 24.1 101.55     LegendNANA
21:00 5.1 -3.0 56   9 16 24.1 101.51     LegendNANA
22:00 5.0 -2.3 59   8 15 24.1 101.51     Cloudy
23:00 4.9 -2.2 60   8 21 24.1 101.37     LegendNANA

Notes on Data Quality.

Legend

  • E = Estimated
  • M = Missing
  • NA = Not Available*
  • [empty] = Indicates an unobserved value
Date modified: